Location: Guadanolo
(41.9167°N, 12.9333°E)
Time: 12:16:56
(UTC+00:00)

Okean 2 - Pass Details

Date: 16 September 2019
Orbit: 560 x 577 km, 82.5° (Epoch: 17 October)

Event Time Altitude Azimuth Distance (km) Brightness Sun altitude
Rises 17:39:22 0° 352° (N) 2,761 7.1 -5.0°
Reaches altitude 10° 17:41:33 10° 354° (N) 1,862 6.2 -5.4°
Maximum altitude 17:45:40 83° 83° (E) 573 3.3 -6.2°
Drops below altitude 10° 17:49:45 10° 171° (S) 1,853 5.8 -6.9°
Sets 17:51:55 0° 172° (S) 2,747 6.7 -7.3°
